When you browse on this site, cookies collect data to enhance your experience and personalize the content and advertising you see.
Visit our Privacy Policy to learn more. By continuing to use the site, you agree to this use of cookies and data.
  • In Hungary
  • List of Countries
  • For 7 days
  • Water Temperature
  • Satellite Maps
  • Weather Map
  • News
  • Weather Widgets
  • user-avatar
    Login

    Hourly Weather Jordanow

    Today, 22 April, Monday

    Time Temperature Precipitation Wind Pressure Humidity
    00:00 +8°C° 0 mm 1 mps 716 mmHg 72%
    01:00 +7°C° 0 mm 2 mps 716 mmHg 69%
    02:00 +7°C° 0 mm 1 mps 716 mmHg 70%
    03:00 +7°C° 0 mm 1 mps 716 mmHg 70%
    04:00 +7°C° 0 mm 1 mps 716 mmHg 70%
    05:00 +8°C° 0 mm 1 mps 716 mmHg 68%
    06:00 +9°C° 0 mm 1 mps 716 mmHg 65%
    07:00 +10°C° 0 mm 1 mps 716 mmHg 63%
    08:00 +10°C° 0.7 mm 2 mps 716 mmHg 63%
    09:00 +11°C° 0.7 mm 3 mps 716 mmHg 63%
    10:00 +12°C° 0.7 mm 3 mps 716 mmHg 63%
    11:00 +13°C° 0.4 mm 4 mps 716 mmHg 60%
    12:00 +13°C° 0.4 mm 4 mps 717 mmHg 57%
    13:00 +14°C° 0.4 mm 5 mps 717 mmHg 54%
    14:00 +14°C° 0.1 mm 5 mps 716 mmHg 53%
    15:00 +14°C° 0.1 mm 5 mps 716 mmHg 51%
    16:00 +14°C° 0.1 mm 5 mps 716 mmHg 49%
    17:00 +13°C° 0 mm 4 mps 716 mmHg 57%
    18:00 +11°C° 0 mm 4 mps 716 mmHg 65%
    19:00 +9°C° 0 mm 3 mps 716 mmHg 72%
    20:00 +8°C° 0 mm 3 mps 716 mmHg 76%
    21:00 +7°C° 0 mm 3 mps 716 mmHg 81%
    22:00 +7°C° 0 mm 2 mps 717 mmHg 85%
    23:00 +6°C° 0 mm 2 mps 717 mmHg 87%

    Tomorrow, 23 April, Tuesday

    Time Temperature Precipitation Wind Pressure Humidity
    00:00 +6°C° 0 mm 2 mps 716 mmHg 89%
    01:00 +6°C° 0 mm 2 mps 716 mmHg 90%
    02:00 +5°C° 0 mm 2 mps 716 mmHg 91%
    03:00 +5°C° 0 mm 2 mps 716 mmHg 91%
    04:00 +5°C° 0 mm 2 mps 716 mmHg 91%
    05:00 +5°C° 0.1 mm 3 mps 716 mmHg 87%
    06:00 +7°C° 0.1 mm 3 mps 716 mmHg 82%
    07:00 +8°C° 0.1 mm 3 mps 716 mmHg 78%
    08:00 +10°C° 0 mm 4 mps 717 mmHg 70%
    09:00 +12°C° 0 mm 4 mps 717 mmHg 63%
    10:00 +14°C° 0 mm 5 mps 717 mmHg 55%
    11:00 +14°C° 0 mm 5 mps 717 mmHg 53%
    12:00 +15°C° 0 mm 6 mps 717 mmHg 51%
    13:00 +15°C° 0 mm 6 mps 717 mmHg 48%
    14:00 +15°C° 0 mm 6 mps 716 mmHg 51%
    15:00 +14°C° 0 mm 6 mps 716 mmHg 54%
    16:00 +14°C° 0 mm 5 mps 716 mmHg 56%
    17:00 +12°C° 0.1 mm 5 mps 716 mmHg 63%
    18:00 +11°C° 0.1 mm 4 mps 716 mmHg 70%
    19:00 +9°C° 0.1 mm 3 mps 716 mmHg 77%
    20:00 +9°C° 0.1 mm 3 mps 716 mmHg 80%
    21:00 +9°C° 0.1 mm 3 mps 716 mmHg 82%
    22:00 +8°C° 0.1 mm 3 mps 716 mmHg 84%
    23:00 +8°C° 0.1 mm 2 mps 715 mmHg 86%

    Day after tomorrow, 24 April, Wednesday

    Time Temperature Precipitation Wind Pressure Humidity
    00:00 +8°C° 0.1 mm 2 mps 715 mmHg 89%
    01:00 +7°C° 0.1 mm 2 mps 715 mmHg 91%
    02:00 +7°C° 0.1 mm 2 mps 715 mmHg 91%
    03:00 +7°C° 0.1 mm 2 mps 715 mmHg 91%
    04:00 +7°C° 0.1 mm 2 mps 715 mmHg 91%
    05:00 +8°C° 0 mm 2 mps 715 mmHg 87%
    06:00 +10°C° 0 mm 3 mps 716 mmHg 83%
    07:00 +11°C° 0 mm 3 mps 716 mmHg 79%
    08:00 +12°C° 0 mm 3 mps 716 mmHg 73%
    09:00 +14°C° 0 mm 4 mps 717 mmHg 67%
    10:00 +15°C° 0 mm 4 mps 717 mmHg 62%
    11:00 +17°C° 0 mm 4 mps 717 mmHg 59%
    12:00 +16°C° 0 mm 5 mps 717 mmHg 56%
    13:00 +17°C° 0 mm 5 mps 718 mmHg 54%
    14:00 +17°C° 0 mm 5 mps 718 mmHg 56%
    15:00 +17°C° 0 mm 4 mps 717 mmHg 58%
    16:00 +17°C° 0 mm 4 mps 717 mmHg 60%
    17:00 +14°C° 0 mm 3 mps 717 mmHg 67%
    18:00 +13°C° 0 mm 3 mps 717 mmHg 74%
    19:00 +12°C° 0 mm 2 mps 717 mmHg 81%
    20:00 +12°C° 0 mm 2 mps 717 mmHg 85%
    21:00 +10°C° 0 mm 2 mps 717 mmHg 88%
    22:00 +9°C° 0 mm 2 mps 717 mmHg 92%
    23:00 +9°C° 0 mm 2 mps 717 mmHg 92%

    25 April, Thursday

    Time Temperature Precipitation Wind Pressure Humidity
    00:00 +9°C° 0 mm 2 mps 717 mmHg 93%
    01:00 +9°C° 0 mm 2 mps 717 mmHg 94%
    02:00 +10°C° 0 mm 2 mps 717 mmHg 94%
    03:00 +10°C° 0 mm 2 mps 717 mmHg 93%
    04:00 +10°C° 0 mm 2 mps 717 mmHg 93%
    05:00 +11°C° 0 mm 3 mps 717 mmHg 86%
    06:00 +13°C° 0 mm 3 mps 717 mmHg 78%
    07:00 +16°C° 0 mm 3 mps 718 mmHg 70%
    08:00 +17°C° 0 mm 4 mps 718 mmHg 63%
    09:00 +19°C° 0 mm 4 mps 718 mmHg 56%
    10:00 +21°C° 0 mm 4 mps 718 mmHg 49%
    11:00 +22°C° 0 mm 5 mps 718 mmHg 47%
    12:00 +22°C° 0 mm 5 mps 718 mmHg 45%
    13:00 +23°C° 0 mm 5 mps 718 mmHg 43%
    14:00 +22°C° 0 mm 5 mps 717 mmHg 47%
    15:00 +21°C° 0 mm 4 mps 717 mmHg 50%
    16:00 +21°C° 0 mm 4 mps 717 mmHg 54%
    17:00 +19°C° 0 mm 3 mps 716 mmHg 63%
    18:00 +17°C° 0 mm 3 mps 716 mmHg 71%
    19:00 +15°C° 0 mm 2 mps 716 mmHg 80%
    20:00 +15°C° 0 mm 2 mps 716 mmHg 83%
    21:00 +14°C° 0 mm 2 mps 716 mmHg 87%
    22:00 +13°C° 0 mm 2 mps 716 mmHg 90%
    23:00 +13°C° 0 mm 2 mps 716 mmHg 91%

    26 April, Friday

    Time Temperature Precipitation Wind Pressure Humidity
    00:00 +13°C° 0 mm 2 mps 716 mmHg 92%
    01:00 +13°C° 0 mm 2 mps 716 mmHg 93%
    02:00 +13°C° 0 mm 2 mps 715 mmHg 92%
    03:00 +13°C° 0 mm 2 mps 715 mmHg 92%
    04:00 +12°C° 0 mm 2 mps 715 mmHg 92%
    05:00 +13°C° 0 mm 3 mps 715 mmHg 83%
    06:00 +15°C° 0 mm 4 mps 715 mmHg 75%
    07:00 +18°C° 0 mm 4 mps 715 mmHg 66%
    08:00 +20°C° 0 mm 5 mps 715 mmHg 58%
    09:00 +21°C° 0 mm 6 mps 716 mmHg 51%
    10:00 +23°C° 0 mm 6 mps 716 mmHg 43%
    11:00 +23°C° 0 mm 6 mps 715 mmHg 43%
    12:00 +23°C° 0 mm 6 mps 715 mmHg 42%
    13:00 +24°C° 0 mm 6 mps 715 mmHg 42%
    14:00 +23°C° 0 mm 5 mps 715 mmHg 46%
    15:00 +22°C° 0 mm 5 mps 714 mmHg 50%
    16:00 +22°C° 0 mm 5 mps 714 mmHg 54%
    17:00 +20°C° 0 mm 4 mps 714 mmHg 60%
    18:00 +18°C° 0 mm 3 mps 714 mmHg 65%
    19:00 +17°C° 0 mm 2 mps 714 mmHg 71%
    20:00 +16°C° 0 mm 2 mps 714 mmHg 73%
    21:00 +16°C° 0 mm 2 mps 714 mmHg 75%
    22:00 +15°C° 0 mm 1 mps 714 mmHg 76%
    23:00 +15°C° 0.5 mm 1 mps 714 mmHg 81%

    27 April, Saturday

    Time Temperature Precipitation Wind Pressure Humidity
    00:00 +14°C° 0.5 mm 1 mps 714 mmHg 85%
    01:00 +13°C° 0.5 mm 1 mps 714 mmHg 89%
    02:00 +13°C° 1.8 mm 1 mps 714 mmHg 92%
    03:00 +13°C° 1.8 mm 1 mps 714 mmHg 94%
    04:00 +13°C° 1.8 mm 1 mps 714 mmHg 97%
    05:00 +13°C° 0.4 mm 1 mps 715 mmHg 96%
    06:00 +14°C° 0.4 mm 1 mps 715 mmHg 95%
    07:00 +14°C° 0.4 mm 1 mps 715 mmHg 93%
    08:00 +14°C° 0.2 mm 1 mps 716 mmHg 93%
    09:00 +14°C° 0.2 mm 2 mps 716 mmHg 93%
    10:00 +13°C° 0.2 mm 2 mps 716 mmHg 93%
    11:00 +13°C° 0.2 mm 2 mps 717 mmHg 94%
    12:00 +11°C° 0.2 mm 3 mps 717 mmHg 94%
    13:00 +11°C° 0.2 mm 3 mps 717 mmHg 95%
    14:00 +12°C° 0.3 mm 2 mps 717 mmHg 94%
    15:00 +10°C° 0.3 mm 2 mps 717 mmHg 94%
    16:00 +10°C° 0.3 mm 2 mps 717 mmHg 93%
    17:00 +10°C° 0.3 mm 2 mps 718 mmHg 94%
    18:00 +10°C° 0.3 mm 2 mps 718 mmHg 95%
    19:00 +10°C° 0.3 mm 2 mps 718 mmHg 95%
    20:00 +11°C° 0 mm 1 mps 719 mmHg 95%
    21:00 +11°C° 0 mm 1 mps 719 mmHg 95%
    22:00 +10°C° 0 mm 1 mps 719 mmHg 95%
    23:00 +10°C° 0 mm 1 mps 719 mmHg 96%
    Show more